SR1WXW Weather Reports


time (UTC)temp
F
wind
direction
speed
knots
gust
knots
rain 1hr
in
rain 24hr
in
rain mn
in
humidity
%
barometer
mb
20210618214053 73 135 0.0 0.0 0.00 0.00 0.00 50 1009.6
20210618213553 73 112 0.0 0.0 0.00 0.00 0.00 50 1009.5
20210618213053 73 135 0.0 0.0 0.00 0.00 0.00 49 1009.6
20210618212553 73 112 0.0 0.0 0.00 0.00 0.00 49 1009.6
20210618212053 73 112 0.0 0.0 0.00 0.00 0.00 49 1009.7
20210618211553 73 135 0.0 0.0 0.00 0.00 0.00 49 1009.7
20210618211053 73 157 0.0 0.0 0.00 0.00 0.00 49 1009.6
20210618210553 73 135 0.0 0.0 0.00 0.00 0.00 49 1009.6
20210618210053 74 90 0.0 0.0 0.00 0.00 0.00 49 1009.6
20210618205553 74 135 0.0 0.0 0.00 0.00 0.00 49 1009.5
20210618205053 74 135 0.0 0.0 0.00 0.00 0.00 49 1009.4
20210618204553 74 135 0.0 0.0 0.00 0.00 0.00 49 1009.4
20210618204053 74 112 0.0 0.0 0.00 0.00 0.00 48 1009.4
20210618203553 75 112 0.0 0.0 0.00 0.00 0.00 48 1009.5
20210618203053 75 157 0.0 0.0 0.00 0.00 0.00 48 1009.5
20210618202553 75 112 0.0 0.0 0.00 0.00 0.00 47 1009.2
20210618202053 75 90 0.0 0.0 0.00 0.00 0.00 47 1009.3
20210618201553 75 112 0.0 0.0 0.00 0.00 0.00 47 1009.2
20210618201053 75 112 0.0 0.0 0.00 0.00 0.00 47 1009.4
20210618200553 76 135 0.0 0.0 0.00 0.00 0.00 46 1009.2
20210618200053 76 135 0.0 0.0 0.00 0.00 0.00 46 1009.3
20210618195553 76 112 0.0 0.0 0.00 0.00 0.00 46 1009.2
20210618195053 77 112 0.0 0.0 0.00 0.00 0.00 45 1009.3
20210618194553 77 90 0.0 0.0 0.00 0.00 0.00 45 1009.2
20210618194053 77 67 0.0 0.0 0.00 0.00 0.00 45 1009.3
20210618193553 77 135 0.0 0.0 0.00 0.00 0.00 45 1009.2
20210618193053 78 112 0.0 0.0 0.00 0.00 0.00 44 1009.2
20210618192553 78 112 0.0 0.0 0.00 0.00 0.00 44 1009.3
20210618192053 78 135 0.0 0.9 0.00 0.00 0.00 44 1009.1
20210618191553 78 112 0.0 0.0 0.00 0.00 0.00 44 1009.1
20210618191053 79 90 0.0 0.0 0.00 0.00 0.00 44 1009.1
20210618190553 79 135 0.0 0.0 0.00 0.00 0.00 44 1009.0
20210618190053 79 135 0.0 0.0 0.00 0.00 0.00 43 1009.0
20210618185553 80 90 0.0 0.9 0.00 0.00 0.00 43 1009.2
20210618185053 80 112 0.0 0.9 0.00 0.00 0.00 43 1009.2
20210618184553 80 90 0.0 0.0 0.00 0.00 0.00 43 1009.2
20210618184053 80 112 0.0 1.7 0.00 0.00 0.00 43 1009.1
20210618183553 81 112 0.0 1.7 0.00 0.00 0.00 43 1009.1
20210618183053 81 90 1.7 1.7 0.00 0.00 0.00 42 1009.1
20210618182553 81 67 0.0 1.7 0.00 0.00 0.00 42 1009.1
20210618182054 81 112 0.0 1.7 0.00 0.00 0.00 42 1009.1
20210618181553 82 112 0.0 3.5 0.00 0.00 0.00 42 1009.1
20210618181053 82 180 0.9 2.6 0.00 0.00 0.00 42 1009.1
20210618180554 82 90 0.0 1.7 0.00 0.00 0.00 42 1009.0
20210618180054 82 112 1.7 2.6 0.00 0.00 0.00 41 1008.8
20210618175554 82 112 0.0 2.6 0.00 0.00 0.00 41 1009.0
20210618175054 83 112 0.0 1.7 0.00 0.00 0.00 41 1009.0
20210618174554 83 112 0.0 3.5 0.00 0.00 0.00 41 1009.0
20210618174054 83 135 0.0 2.6 0.00 0.00 0.00 41 1009.1
20210618173554 83 67 0.0 1.7 0.00 0.00 0.00 41 1008.8
20210618173054 84 112 1.7 1.7 0.00 0.00 0.00 41 1008.9
20210618172554 84 157 0.0 3.5 0.00 0.00 0.00 41 1009.0
20210618172054 84 112 1.7 2.6 0.00 0.00 0.00 41 1009.0
20210618171554 84 112 0.0 1.7 0.00 0.00 0.00 40 1009.2
20210618171054 84 135 0.0 1.7 0.00 0.00 0.00 40 1009.0
20210618170554 85 67 0.0 2.6 0.00 0.00 0.00 40 1009.1
20210618170054 85 135 0.0 5.2 0.00 0.00 0.00 39 1009.1
20210618165554 85 135 0.0 2.6 0.00 0.00 0.00 40 1009.0
20210618165054 85 135 0.0 1.7 0.00 0.00 0.00 39 1009.0
20210618164554 86 45 0.0 1.7 0.00 0.00 0.00 39 1009.1
20210618164054 86 112 0.0 0.0 0.00 0.00 0.00 39 1009.1
20210618163554 86 90 0.0 0.9 0.00 0.00 0.00 39 1009.0
20210618163054 86 135 0.0 1.7 0.00 0.00 0.00 38 1009.1
20210618162554 86 135 0.0 0.9 0.00 0.00 0.00 38 1009.1
20210618162054 86 135 0.0 1.7 0.00 0.00 0.00 38 1009.2
20210618161554 86 112 0.0 2.6 0.00 0.00 0.00 38 1009.2
20210618161054 86 135 0.0 2.6 0.00 0.00 0.00 38 1009.2
20210618160554 87 135 0.0 3.5 0.00 0.00 0.00 37 1009.2
20210618160054 87 157 0.0 5.2 0.00 0.00 0.00 37 1009.2
20210618155554 87 135 0.9 2.6 0.00 0.00 0.00 37 1009.2
20210618155054 87 112 0.0 0.0 0.00 0.00 0.00 37 1009.2
20210618154554 87 112 0.0 0.0 0.00 0.00 0.00 37 1009.3
20210618154054 87 112 0.0 2.6 0.00 0.00 0.00 37 1009.2
20210618153554 87 157 0.0 1.7 0.00 0.00 0.00 37 1009.4
20210618153054 87 135 0.0 1.7 0.00 0.00 0.00 37 1009.5
20210618152554 87 157 0.0 0.9 0.00 0.00 0.00 37 1009.5
20210618152054 87 112 0.0 2.6 0.00 0.00 0.00 37 1009.6
20210618151554 87 135 0.0 1.7 0.00 0.00 0.00 36 1009.6
20210618151054 88 22 0.0 4.3 0.00 0.00 0.00 37 1009.6
20210618150554 88 90 0.9 3.5 0.00 0.00 0.00 37 1009.5
20210618150054 88 135 0.0 4.3 0.00 0.00 0.00 37 1009.5
20210618145554 88 67 0.0 1.7 0.00 0.00 0.00 37 1009.4
20210618145054 88 135 0.0 1.7 0.00 0.00 0.00 37 1009.6
20210618144554 88 135 0.0 4.3 0.00 0.00 0.00 37 1009.6
20210618144054 88 157 0.0 1.7 0.00 0.00 0.00 37 1009.6
20210618143554 88 112 0.0 2.6 0.00 0.00 0.00 37 1009.6
20210618143054 88 112 0.0 2.6 0.00 0.00 0.00 37 1009.7
20210618142554 88 112 0.0 1.7 0.00 0.00 0.00 37 1009.7
20210618142054 88 135 0.0 2.6 0.00 0.00 0.00 37 1009.7
20210618141554 88 135 0.0 4.3 0.00 0.00 0.00 36 1009.7
20210618141054 88 112 0.9 2.6 0.00 0.00 0.00 36 1009.8
20210618140554 88 135 0.0 2.6 0.00 0.00 0.00 36 1009.8
20210618140054 88 112 0.0 7.0 0.00 0.00 0.00 36 1009.9
20210618135554 88 112 0.0 7.0 0.00 0.00 0.00 37 1009.9
20210618135054 88 112 0.0 2.6 0.00 0.00 0.00 37 1010.0
20210618134554 88 90 0.9 0.9 0.00 0.00 0.00 37 1010.1
20210618134054 88 67 0.0 3.5 0.00 0.00 0.00 37 1010.0
20210618133554 88 67 0.0 1.7 0.00 0.00 0.00 38 1010.0
20210618133054 88 90 0.0 1.7 0.00 0.00 0.00 38 1010.0
20210618132554 88 157 0.0 4.3 0.00 0.00 0.00 37 1010.0
20210618132054 88 45 3.5 3.5 0.00 0.00 0.00 37 1009.9
20210618131554 88 112 2.6 2.6 0.00 0.00 0.00 37 1010.0
20210618131054 88 112 0.0 1.7 0.00 0.00 0.00 37 1010.1
20210618130554 89 112 0.0 2.6 0.00 0.00 0.00 37 1010.1
20210618130054 89 67 0.9 4.3 0.00 0.00 0.00 37 1010.1
20210618125554 88 90 0.0 1.7 0.00 0.00 0.00 37 1010.1
20210618125054 88 157 0.0 0.9 0.00 0.00 0.00 38 1010.2
20210618124554 88 112 0.0 6.1 0.00 0.00 0.00 37 1010.3
20210618124054 88 112 0.0 1.7 0.00 0.00 0.00 38 1010.3
20210618123554 88 135 0.0 2.6 0.00 0.00 0.00 38 1010.3
20210618123054 88 67 0.0 2.6 0.00 0.00 0.00 38 1010.2
20210618122554 88 90 0.0 1.7 0.00 0.00 0.00 38 1010.4
20210618122054 88 135 0.0 3.5 0.00 0.00 0.00 38 1010.5
20210618121554 87 90 0.0 2.6 0.00 0.00 0.00 38 1010.5
20210618121054 87 202 0.0 2.6 0.00 0.00 0.00 38 1010.5
20210618120554 88 67 0.9 2.6 0.00 0.00 0.00 38 1010.5
20210618120054 88 112 1.7 1.7 0.00 0.00 0.00 38 1010.6
20210618115554 88 90 1.7 3.5 0.00 0.00 0.00 38 1010.6
20210618115054 88 90 0.9 1.7 0.00 0.00 0.00 38 1010.6
20210618114554 88 45 0.0 2.6 0.00 0.00 0.00 38 1010.6
20210618114054 88 90 0.9 1.7 0.00 0.00 0.00 39 1010.7
20210618113554 88 135 0.0 1.7 0.00 0.00 0.00 38 1010.7
20210618113054 88 112 0.9 3.5 0.00 0.00 0.00 38 1010.6
20210618112554 88 45 2.6 5.2 0.00 0.00 0.00 38 1010.5
20210618112054 88 112 3.5 3.5 0.00 0.00 0.00 38 1010.6
20210618111554 88 90 0.0 4.3 0.00 0.00 0.00 39 1010.7
20210618111054 88 45 0.9 1.7 0.00 0.00 0.00 38 1010.7
20210618110555 88 67 1.7 2.6 0.00 0.00 0.00 39 1010.7
20210618110055 87 292 0.0 1.7 0.00 0.00 0.00 40 1010.8
20210618105555 87 135 0.0 3.5 0.00 0.00 0.00 40 1010.9
20210618105055 87 112 1.7 3.5 0.00 0.00 0.00 38 1010.8
20210618104555 88 135 0.0 6.1 0.00 0.00 0.00 38 1010.9
20210618104055 88 180 0.0 6.1 0.00 0.00 0.00 37 1010.9
20210618103555 88 135 0.0 2.6 0.00 0.00 0.00 38 1010.9
20210618103055 88 135 0.0 2.6 0.00 0.00 0.00 38 1011.0
20210618102555 88 135 0.0 0.9 0.00 0.00 0.00 38 1011.1
20210618102055 89 135 0.0 0.9 0.00 0.00 0.00 39 1011.1
20210618101555 89 90 0.0 0.9 0.00 0.00 0.00 37 1011.1
20210618101055 90 157 0.0 1.7 0.00 0.00 0.00 36 1011.1
20210618100555 91 135 0.0 4.3 0.00 0.00 0.00 35 1011.2
20210618100055 93 180 0.0 1.7 0.00 0.00 0.00 34 1011.2
20210618095555 95 180 0.0 1.7 0.00 0.00 0.00 32 1011.3
20210618095055 97 225 0.0 0.9 0.00 0.00 0.00 31 1011.4
20210618094555 100 135 0.0 0.9 0.00 0.00 0.00 30 1011.1
20210618094055 101 135 0.0 4.3 0.00 0.00 0.00 30 1011.3
20210618093555 101 135 0.9 1.7 0.00 0.00 0.00 30 1011.2
20210618093055 101 112 0.0 0.0 0.00 0.00 0.00 29 1011.2
20210618092555 101 135 0.0 0.9 0.00 0.00 0.00 30 1011.2
20210618092055 101 157 0.0 0.0 0.00 0.00 0.00 30 1011.2
20210618091555 101 180 0.0 2.6 0.00 0.00 0.00 30 1011.2
20210618091055 101 157 0.0 1.7 0.00 0.00 0.00 30 1011.3
20210618090555 102 202 0.0 0.9 0.00 0.00 0.00 30 1011.2
20210618090055 102 135 0.0 0.9 0.00 0.00 0.00 30 1011.2
20210618085555 102 135 0.9 5.2 0.00 0.00 0.00 30 1011.2
20210618085055 102 180 0.0 3.5 0.00 0.00 0.00 31 1011.3
20210618084555 101 135 0.0 0.0 0.00 0.00 0.00 31 1011.4
20210618084055 101 180 0.0 5.2 0.00 0.00 0.00 31 1011.3
20210618083555 100 135 0.0 0.9 0.00 0.00 0.00 32 1011.4
20210618083055 99 202 0.0 3.5 0.00 0.00 0.00 33 1011.4
20210618082555 98 135 0.0 0.9 0.00 0.00 0.00 33 1011.4
20210618082055 98 135 0.0 2.6 0.00 0.00 0.00 34 1011.5
20210618081555 97 247 0.0 1.7 0.00 0.00 0.00 34 1011.5
20210618081055 97 112 0.0 1.7 0.00 0.00 0.00 35 1011.6
20210618080555 96 135 0.0 2.6 0.00 0.00 0.00 36 1011.6
20210618080055 96 270 0.0 2.6 0.00 0.00 0.00 36 1011.6
20210618075555 95 135 1.7 2.6 0.00 0.00 0.00 37 1011.7
20210618075055 94 157 0.9 0.9 0.00 0.00 0.00 38 1011.6
20210618074555 93 112 0.0 1.7 0.00 0.00 0.00 38 1011.6
20210618074055 93 135 0.0 0.9 0.00 0.00 0.00 39 1011.6
20210618073555 93 180 0.0 2.6 0.00 0.00 0.00 39 1011.7
20210618073055 93 112 0.9 1.7 0.00 0.00 0.00 40 1011.7
20210618072555 92 67 0.0 0.9 0.00 0.00 0.00 41 1011.8
20210618072055 91 112 0.0 2.6 0.00 0.00 0.00 41 1011.9
20210618071555 90 112 0.0 0.0 0.00 0.00 0.00 42 1012.0
20210618071055 90 135 0.0 0.0 0.00 0.00 0.00 42 1012.1
20210618070555 90 67 0.0 2.6 0.00 0.00 0.00 43 1011.9
20210618070055 89 180 0.0 2.6 0.00 0.00 0.00 43 1012.0
20210618065555 89 135 0.0 5.2 0.00 0.00 0.00 44 1011.7
20210618065055 88 157 0.0 0.0 0.00 0.00 0.00 45 1011.7
20210618064555 87 135 0.0 0.9 0.00 0.00 0.00 46 1011.6
20210618064055 86 112 0.0 0.0 0.00 0.00 0.00 48 1011.7
20210618063555 84 157 0.0 0.0 0.00 0.00 0.00 49 1011.6
20210618063055 83 157 0.0 1.7 0.00 0.00 0.00 49 1011.7
20210618062555 82 157 0.0 1.7 0.00 0.00 0.00 49 1011.7
20210618062056 83 157 0.0 0.0 0.00 0.00 0.00 48 1011.7
20210618061555 84 202 0.0 0.0 0.00 0.00 0.00 48 1011.7
20210618061055 84 157 0.0 1.7 0.00 0.00 0.00 48 1011.7
20210618060555 84 157 0.0 2.6 0.00 0.00 0.00 49 1011.8
20210618060055 83 135 1.7 1.7 0.00 0.00 0.00 50 1011.8
20210618055555 83 135 0.0 0.0 0.00 0.00 0.00 50 1011.7
20210618055055 82 135 0.0 0.9 0.00 0.00 0.00 52 1011.7
20210618054555 81 135 0.0 0.0 0.00 0.00 0.00 53 1011.6
20210618054055 81 157 0.0 0.0 0.00 0.00 0.00 54 1011.7
20210618053555 80 135 0.0 0.0 0.00 0.00 0.00 55 1011.6
20210618053055 79 135 0.0 0.9 0.00 0.00 0.00 56 1011.6
20210618052555 78 157 0.0 0.0 0.00 0.00 0.00 57 1011.6
20210618052055 77 180 0.0 0.0 0.00 0.00 0.00 58 1011.6
20210618051555 76 202 0.0 0.0 0.00 0.00 0.00 59 1011.7
20210618051055 75 135 0.9 0.9 0.00 0.00 0.00 60 1011.7
20210618050555 75 135 0.0 0.0 0.00 0.00 0.00 62 1011.7
20210618050055 74 180 0.0 0.0 0.00 0.00 0.00 63 1011.7
20210618045555 73 180 0.0 0.0 0.00 0.00 0.00 64 1011.7
20210618045055 72 135 0.0 0.9 0.00 0.00 0.00 66 1011.8
20210618044555 71 90 0.9 1.7 0.00 0.00 0.00 67 1011.7
20210618044055 70 180 0.0 0.0 0.00 0.00 0.00 69 1011.7
20210618043555 68 112 0.0 1.7 0.00 0.00 0.00 70 1011.7
20210618043055 67 112 0.9 0.9 0.00 0.00 0.00 72 1011.7
20210618042555 66 90 0.0 1.7 0.00 0.00 0.00 72 1011.7
20210618042055 66 112 0.0 2.6 0.00 0.00 0.00 73 1011.7
20210618041555 65 112 0.0 0.0 0.00 0.00 0.00 73 1011.7
20210618041055 65 135 0.0 0.0 0.00 0.00 0.00 73 1011.7
20210618040555 65 90 0.0 0.0 0.00 0.00 0.00 73 1011.7
20210618040055 65 112 0.0 0.0 0.00 0.00 0.00 73 1011.8
20210618035555 65 112 0.0 0.0 0.00 0.00 0.00 73 1011.7
20210618035055 65 135 0.0 0.0 0.00 0.00 0.00 73 1011.8
20210618034556 65 135 0.0 0.0 0.00 0.00 0.00 73 1011.7
20210618034055 65 45 0.0 0.0 0.00 0.00 0.00 73 1011.7
20210618033556 65 135 0.0 0.0 0.00 0.00 0.00 73 1011.7
20210618033056 65 112 0.0 0.0 0.00 0.00 0.00 73 1011.7
20210618032556 64 135 0.0 0.0 0.00 0.00 0.00 73 1011.6
20210618032056 64 112 0.0 0.0 0.00 0.00 0.00 73 1011.6
20210618031556 64 112 0.0 0.0 0.00 0.00 0.00 73 1011.7
20210618031056 64 112 0.0 0.0 0.00 0.00 0.00 72 1011.6
20210618030556 64 112 0.0 0.0 0.00 0.00 0.00 72 1011.5
20210618030056 64 135 0.0 0.0 0.00 0.00 0.00 72 1011.6
20210618025556 64 112 0.0 0.0 0.00 0.00 0.00 72 1011.6
20210618025056 65 135 0.0 0.0 0.00 0.00 0.00 72 1011.5
20210618024556 65 90 0.0 0.0 0.00 0.00 0.00 72 1011.4
20210618024056 65 112 0.0 0.0 0.00 0.00 0.00 72 1011.5
20210618023556 65 112 0.0 0.0 0.00 0.00 0.00 72 1011.4
20210618023056 65 135 0.0 0.0 0.00 0.00 0.00 72 1011.3
20210618022556 65 135 0.0 0.0 0.00 0.00 0.00 71 1011.2
20210618022056 65 112 0.0 0.0 0.00 0.00 0.00 71 1011.3
20210618021556 65 112 0.0 0.0 0.00 0.00 0.00 71 1011.3
20210618021056 65 112 0.0 0.0 0.00 0.00 0.00 71 1011.3
20210618020556 65 112 0.0 0.0 0.00 0.00 0.00 71 1011.3
20210618020056 65 135 0.0 0.0 0.00 0.00 0.00 71 1011.3
20210618015556 66 90 0.0 0.0 0.00 0.00 0.00 71 1011.3
20210618015056 66 135 0.0 0.0 0.00 0.00 0.00 71 1011.4
20210618014556 66 112 0.0 0.0 0.00 0.00 0.00 71 1011.4
20210618014056 66 67 0.0 0.0 0.00 0.00 0.00 71 1011.4
20210618013556 66 112 0.0 0.0 0.00 0.00 0.00 70 1011.3
20210618013056 66 112 0.0 0.0 0.00 0.00 0.00 70 1011.4
20210618012556 66 135 0.0 0.0 0.00 0.00 0.00 70 1011.6
20210618012056 66 135 0.0 0.0 0.00 0.00 0.00 70 1011.6
20210618011556 66 135 0.0 0.0 0.00 0.00 0.00 69 1011.5
20210618011056 66 135 0.0 0.0 0.00 0.00 0.00 69 1011.6
20210618010556 66 135 0.0 0.0 0.00 0.00 0.00 69 1011.6
20210618010056 67 135 0.0 0.0 0.00 0.00 0.00 69 1011.6
20210618005556 67 135 0.0 0.0 0.00 0.00 0.00 69 1011.6
20210618005056 67 135 0.0 0.0 0.00 0.00 0.00 69 1011.7
20210618004556 67 157 0.0 0.0 0.00 0.00 0.00 69 1011.7
20210618004056 67 135 0.0 0.0 0.00 0.00 0.00 69 1011.7
20210618003556 67 157 0.0 0.0 0.00 0.00 0.00 69 1011.7
20210618003056 67 90 0.0 0.0 0.00 0.00 0.00 69 1011.8
20210618002556 67 112 0.0 0.0 0.00 0.00 0.00 69 1011.8
20210618002056 67 112 0.0 0.0 0.00 0.00 0.00 69 1011.8
20210618001556 68 135 0.0 0.0 0.00 0.00 0.00 69 1011.9
20210618001056 68 135 0.0 0.0 0.00 0.00 0.00 68 1012.0
20210618000556 68 135 0.0 0.0 0.00 0.00 0.00 68 1012.1
20210618000056 68 112 0.0 0.0 0.00 0.00 0.00 68 1012.1
20210617235556 68 67 0.0 0.0 0.00 0.00 0.00 68 1012.1
20210617235056 68 90 0.0 0.0 0.00 0.00 0.00 68 1012.1
20210617234556 68 112 0.0 0.0 0.00 0.00 0.00 68 1012.1
20210617234056 68 135 0.0 0.0 0.00 0.00 0.00 68 1012.1
20210617233556 68 112 0.0 0.0 0.00 0.00 0.00 68 1011.9
20210617233056 69 67 0.0 0.0 0.00 0.00 0.00 67 1012.0
20210617232556 69 135 0.0 0.0 0.00 0.00 0.00 67 1012.1
20210617232056 69 90 0.0 0.0 0.00 0.00 0.00 67 1012.2
20210617231556 69 135 0.0 0.0 0.00 0.00 0.00 67 1012.2
20210617231056 69 112 0.0 0.0 0.00 0.00 0.00 67 1012.2
20210617230556 69 135 0.0 0.0 0.00 0.00 0.00 67 1012.1
20210617230056 69 135 0.0 0.0 0.00 0.00 0.00 66 1012.1
20210617225556 69 112 0.0 0.0 0.00 0.00 0.00 66 1012.2
20210617225056 69 112 0.0 0.0 0.00 0.00 0.00 66 1012.2
20210617224556 70 135 0.0 0.0 0.00 0.00 0.00 66 1012.2
20210617224056 70 135 0.0 0.0 0.00 0.00 0.00 66 1012.2
20210617223556 70 135 0.0 0.0 0.00 0.00 0.00 66 1012.2
20210617223056 70 157 0.0 2.6 0.00 0.00 0.00 66 1012.2
20210617222556 70 90 0.0 0.0 0.00 0.00 0.00 66 1012.1
20210617222056 70 135 0.0 1.7 0.00 0.00 0.00 66 1012.1
20210617221556 70 135 0.0 1.7 0.00 0.00 0.00 65 1012.2
20210617221056 70 112 0.0 1.7 0.00 0.00 0.00 65 1012.2
20210617220556 71 135 0.0 0.0 0.00 0.00 0.00 65 1012.2
20210617220056 71 157 0.0 0.9 0.00 0.00 0.00 64 1012.3
20210617215556 71 90 0.0 0.0 0.00 0.00 0.00 64 1012.3
20210617215056 71 112 0.0 0.9 0.00 0.00 0.00 64 1012.4
20210617214556 71 22 0.0 0.0 0.00 0.00 0.00 64 1012.3